Regional Weather Roundup
Issued by NWS

Home | Current Version | Previous Version | Text Only | Print | Product List | Glossary Off
Versions: 1 2 3 4 5 6 7 8 9 10 11 12 13 14 15 16 17 18 19 20 21 22 23 24 25 26 27

000
ASUS45 KCYS 221510
RWRWY

WYOMING REGIONAL WEATHER ROUNDUP
NATIONAL WEATHER SERVICE CHEYENNE WY
800 AM MST SUN JAN 22 2017

NOTE:  "FAIR" INDICATES FEW OR NO CLOUDS BELOW 12,000 FEET
WITH NO SIGNIFICANT WEATHER AND/OR OBSTRUCTIONS TO VISIBILITY.

WYZ001-221600-
YELLOWSTONE NATIONAL PARK

CITY           SKY/WX    TMP DP  RH WIND       PRES   REMARKS
LK YELLOWSTONE   N/A     14  13  95 NW3       29.85F
W YELLOWSTONE  NOT AVBL

$$
WYZ002>013-054>058-071-098>099-221600-
NORTHERN WYOMING

CITY           SKY/WX    TMP DP  RH WIND       PRES   REMARKS
JACKSON        CLOUDY    23  21  93 CALM      29.89S
CODY           FAIR      33  13  43 SW12      29.83R WCI  24
GREYBULL       FAIR       1  -3  83 NW6       29.89R WCI -10
WORLAND        FAIR       4   3  96 N3        29.87R
SHERIDAN       FAIR      19  13  77 SW12      29.84R WCI   7
BUFFALO        FAIR      30  16  56 CALM      29.83R
GILLETTE       FAIR      24  18  77 W3        29.83R
HULETT         FAIR      19  16  86 S8        29.83S WCI   9
NEWCASTLE      FAIR      19  16  86 N9        29.85R WCI   9

$$
WYZ014>020-022>026-101>103-221600-
CENTRAL WYOMING

CITY           SKY/WX    TMP DP  RH WIND       PRES   REMARKS
BIG PINEY      CLOUDY     0  -1  96 CALM      29.94R
PINEDALE       CLOUDY     7   3  85 E3        29.93S
DUBOIS         NOT AVBL
LANDER         FAIR      21   7  54 CALM      29.86R
RIVERTON       FAIR     N/A N/A N/A SW5       29.87R
CASPER         FAIR      25  15  66 SW20      29.86S WCI  11
DOUGLAS        MOCLDY    27  18  69 N8        29.87R WCI  19

$$
WYZ021-027>030-104>119-221600-
SOUTHERN WYOMING

CITY           SKY/WX    TMP DP  RH WIND       PRES   REMARKS
EVANSTON       FAIR      16  12  84 SE6       29.92S FOG     WCI   7
ROCK SPRINGS   FAIR      14  10  84 W16       29.95R WCI  -2
RAWLINS        FAIR      18  10  71 SW15      29.92R WCI   4
LARAMIE        FAIR      19   8  62 W17       29.87R WCI   4
CHEYENNE       FAIR      26  12  55 NW12      29.88R WCI  16
TORRINGTON     CLOUDY    29  20  69 W7        29.87R WCI  22

$$




USA.gov is the U.S. government's official web portal to all federal, state and local government web resources and services.